******************************************************************************* JPL/HORIZONS 136472 Makemake (2005 FY9) 2025-Dec-12 17:56:00 Rec #: 136472 (+COV) Soln.date: 2025-Nov-27_20:23:09 # obs: 6109 (1955-2025) IAU76/J2000 helio. ecliptic osc. elements (au, days, deg., period=Julian yrs): EPOCH= 2458412.5 ! 2018-Oct-21.00 (TDB) Residual RMS= .15034 EC= .1567651282694269 QR= 38.46550413365543 TP= 2407437.935523822 OM= 79.63639400253702 W= 295.3292381036799 IN= 28.98136391230463 A= 45.61659559300789 MA= 163.0697075082235 ADIST= 52.76768705236034 PER= 308.10057 N= .003199041 ANGMOM= .11474658 DAN= 41.69893 DDN= 47.69427 L= 18.0532154 B= -25.972836 MOID= 37.56969833 TP= 1879-Mar-29.4355238220 Asteroid physical parameters (km, seconds, rotational period in hours): GM= n.a. RAD= n.a. ROTPER= 22.8266 H= -.250 G= .150 B-V= n.a. ALBEDO= n.a. STYP= n.a. ASTEROID comments: 1: soln ref.= JPL#128, OCC=1 2: source=ORB ******************************************************************************* ******************************************************************************* Ephemeris / WWW_USER Fri Dec 12 17:56:00 2025 Pasadena, USA / Horizons ******************************************************************************* Target body name: 136472 Makemake (2005 FY9) {source: JPL#128} Center body name: Earth (399) {source: DE441} Center-site name: GEOCENTRIC ******************************************************************************* Start time : A.D. 2186-Nov-01 00:00:00.0000 UT Stop time : A.D. 2186-Nov-30 00:00:00.0000 UT Step-size : 180 minutes ******************************************************************************* Target pole/equ : undefined Target radii : undefined Center geodetic : 0.0, 0.0, -6378.137 {E-lon(deg),Lat(deg),Alt(km)} Center cylindric: 0.0, 0.0, 0.0 {E-lon(deg),Dxy(km),Dz(km)} Center pole/equ : ITRF93 {East-longitude positive} Center radii : 6378.137, 6378.137, 6356.752 km {Equator_a, b, pole_c} Target primary : Sun Vis. interferer : MOON (R_eq= 1737.400) km {source: DE441} Rel. light bend : Sun {source: DE441} Rel. lght bnd GM: 1.3271E+11 km^3/s^2 Small-body perts: Yes {source: SB441-N16} Atmos refraction: NO (AIRLESS) RA format : HMS Time format : CAL Calendar mode : Mixed Julian/Gregorian EOP file : eop.251212.p260310 EOP coverage : DATA-BASED 1962-JAN-20 TO 2025-DEC-12. PREDICTS-> 2026-MAR-09 Units conversion: 1 au= 149597870.700 km, c= 299792.458 km/s, 1 day= 86400.0 s Table cut-offs 1: Elevation (-90.0deg=NO ),Airmass (>38.000=NO), Daylight (NO ) Table cut-offs 2: Solar elongation ( 0.0,180.0=NO ),Local Hour Angle( 0.0=NO ) Table cut-offs 3: RA/DEC angular rate ( 0.0=NO ) ******************************************************************************* Initial IAU76/J2000 heliocentric ecliptic osculating elements (au, days, deg.): EPOCH= 2458412.5 ! 2018-Oct-21.00 (TDB) Residual RMS= .15034 EC= .1567651282694269 QR= 38.46550413365543 TP= 2407437.935523822 OM= 79.63639400253702 W= 295.3292381036799 IN= 28.98136391230463 Equivalent ICRF heliocentric cartesian coordinates (au, au/d): X=-4.617709231403204E+01 Y=-1.297846497960013E+01 Z= 2.142796388023671E+01 VX=-4.399023785176497E-05 VY=-1.920589267657888E-03 VZ=-1.042978474104914E-03 Asteroid physical parameters (km, seconds, rotational period in hours): GM= n.a. RAD= n.a. ROTPER= 22.8266 H= -.250 G= .150 B-V= n.a. ALBEDO= n.a. STYP= n.a. ******************************************************************************* Date__(UT)__HR:MN r rdot ************************************************** $$SOE 2186-Nov-01 00:00 38.20409988864 -0.0008887 2186-Nov-01 03:00 38.20409982472 -0.0008821 2186-Nov-01 06:00 38.20409976128 -0.0008755 2186-Nov-01 09:00 38.20409969831 -0.0008690 2186-Nov-01 12:00 38.20409963581 -0.0008624 2186-Nov-01 15:00 38.20409957379 -0.0008558 2186-Nov-01 18:00 38.20409951225 -0.0008492 2186-Nov-01 21:00 38.20409945118 -0.0008427 2186-Nov-02 00:00 38.20409939058 -0.0008361 2186-Nov-02 03:00 38.20409933046 -0.0008295 2186-Nov-02 06:00 38.20409927082 -0.0008229 2186-Nov-02 09:00 38.20409921165 -0.0008164 2186-Nov-02 12:00 38.20409915295 -0.0008098 2186-Nov-02 15:00 38.20409909473 -0.0008032 2186-Nov-02 18:00 38.20409903698 -0.0007966 2186-Nov-02 21:00 38.20409897971 -0.0007900 2186-Nov-03 00:00 38.20409892292 -0.0007835 2186-Nov-03 03:00 38.20409886660 -0.0007769 2186-Nov-03 06:00 38.20409881075 -0.0007703 2186-Nov-03 09:00 38.20409875538 -0.0007637 2186-Nov-03 12:00 38.20409870048 -0.0007571 2186-Nov-03 15:00 38.20409864606 -0.0007506 2186-Nov-03 18:00 38.20409859212 -0.0007440 2186-Nov-03 21:00 38.20409853865 -0.0007374 2186-Nov-04 00:00 38.20409848565 -0.0007308 2186-Nov-04 03:00 38.20409843313 -0.0007242 2186-Nov-04 06:00 38.20409838109 -0.0007176 2186-Nov-04 09:00 38.20409832952 -0.0007110 2186-Nov-04 12:00 38.20409827843 -0.0007045 2186-Nov-04 15:00 38.20409822781 -0.0006979 2186-Nov-04 18:00 38.20409817766 -0.0006913 2186-Nov-04 21:00 38.20409812800 -0.0006847 2186-Nov-05 00:00 38.20409807881 -0.0006781 2186-Nov-05 03:00 38.20409803009 -0.0006715 2186-Nov-05 06:00 38.20409798185 -0.0006649 2186-Nov-05 09:00 38.20409793408 -0.0006583 2186-Nov-05 12:00 38.20409788680 -0.0006518 2186-Nov-05 15:00 38.20409783998 -0.0006452 2186-Nov-05 18:00 38.20409779365 -0.0006386 2186-Nov-05 21:00 38.20409774778 -0.0006320 2186-Nov-06 00:00 38.20409770240 -0.0006254 2186-Nov-06 03:00 38.20409765749 -0.0006188 2186-Nov-06 06:00 38.20409761305 -0.0006122 2186-Nov-06 09:00 38.20409756909 -0.0006056 2186-Nov-06 12:00 38.20409752561 -0.0005990 2186-Nov-06 15:00 38.20409748261 -0.0005924 2186-Nov-06 18:00 38.20409744008 -0.0005858 2186-Nov-06 21:00 38.20409739802 -0.0005792 2186-Nov-07 00:00 38.20409735644 -0.0005727 2186-Nov-07 03:00 38.20409731534 -0.0005661 2186-Nov-07 06:00 38.20409727472 -0.0005595 2186-Nov-07 09:00 38.20409723457 -0.0005529 2186-Nov-07 12:00 38.20409719489 -0.0005463 2186-Nov-07 15:00 38.20409715570 -0.0005397 2186-Nov-07 18:00 38.20409711697 -0.0005331 2186-Nov-07 21:00 38.20409707873 -0.0005265 2186-Nov-08 00:00 38.20409704096 -0.0005199 2186-Nov-08 03:00 38.20409700367 -0.0005133 2186-Nov-08 06:00 38.20409696686 -0.0005067 2186-Nov-08 09:00 38.20409693052 -0.0005001 2186-Nov-08 12:00 38.20409689465 -0.0004935 2186-Nov-08 15:00 38.20409685927 -0.0004869 2186-Nov-08 18:00 38.20409682436 -0.0004803 2186-Nov-08 21:00 38.20409678993 -0.0004737 2186-Nov-09 00:00 38.20409675597 -0.0004671 2186-Nov-09 03:00 38.20409672249 -0.0004605 2186-Nov-09 06:00 38.20409668949 -0.0004539 2186-Nov-09 09:00 38.20409665696 -0.0004473 2186-Nov-09 12:00 38.20409662491 -0.0004406 2186-Nov-09 15:00 38.20409659334 -0.0004340 2186-Nov-09 18:00 38.20409656225 -0.0004274 2186-Nov-09 21:00 38.20409653163 -0.0004208 2186-Nov-10 00:00 38.20409650149 -0.0004142 2186-Nov-10 03:00 38.20409647182 -0.0004076 2186-Nov-10 06:00 38.20409644264 -0.0004010 2186-Nov-10 09:00 38.20409641393 -0.0003944 2186-Nov-10 12:00 38.20409638569 -0.0003878 2186-Nov-10 15:00 38.20409635794 -0.0003812 2186-Nov-10 18:00 38.20409633066 -0.0003746 2186-Nov-10 21:00 38.20409630386 -0.0003680 2186-Nov-11 00:00 38.20409627753 -0.0003613 2186-Nov-11 03:00 38.20409625168 -0.0003547 2186-Nov-11 06:00 38.20409622631 -0.0003481 2186-Nov-11 09:00 38.20409620142 -0.0003415 2186-Nov-11 12:00 38.20409617701 -0.0003349 2186-Nov-11 15:00 38.20409615307 -0.0003283 2186-Nov-11 18:00 38.20409612961 -0.0003217 2186-Nov-11 21:00 38.20409610663 -0.0003151 2186-Nov-12 00:00 38.20409608412 -0.0003084 2186-Nov-12 03:00 38.20409606209 -0.0003018 2186-Nov-12 06:00 38.20409604054 -0.0002952 2186-Nov-12 09:00 38.20409601947 -0.0002886 2186-Nov-12 12:00 38.20409599888 -0.0002820 2186-Nov-12 15:00 38.20409597876 -0.0002754 2186-Nov-12 18:00 38.20409595912 -0.0002687 2186-Nov-12 21:00 38.20409593996 -0.0002621 2186-Nov-13 00:00 38.20409592128 -0.0002555 2186-Nov-13 03:00 38.20409590307 -0.0002489 2186-Nov-13 06:00 38.20409588534 -0.0002423 2186-Nov-13 09:00 38.20409586809 -0.0002356 2186-Nov-13 12:00 38.20409585132 -0.0002290 2186-Nov-13 15:00 38.20409583503 -0.0002224 2186-Nov-13 18:00 38.20409581921 -0.0002158 2186-Nov-13 21:00 38.20409580387 -0.0002091 2186-Nov-14 00:00 38.20409578902 -0.0002025 2186-Nov-14 03:00 38.20409577463 -0.0001959 2186-Nov-14 06:00 38.20409576073 -0.0001893 2186-Nov-14 09:00 38.20409574731 -0.0001826 2186-Nov-14 12:00 38.20409573436 -0.0001760 2186-Nov-14 15:00 38.20409572189 -0.0001694 2186-Nov-14 18:00 38.20409570990 -0.0001628 2186-Nov-14 21:00 38.20409569839 -0.0001561 2186-Nov-15 00:00 38.20409568736 -0.0001495 2186-Nov-15 03:00 38.20409567681 -0.0001429 2186-Nov-15 06:00 38.20409566673 -0.0001363 2186-Nov-15 09:00 38.20409565713 -0.0001296 2186-Nov-15 12:00 38.20409564802 -0.0001230 2186-Nov-15 15:00 38.20409563938 -0.0001164 2186-Nov-15 18:00 38.20409563122 -0.0001097 2186-Nov-15 21:00 38.20409562354 -0.0001031 2186-Nov-16 00:00 38.20409561633 -0.0000965 2186-Nov-16 03:00 38.20409560961 -0.0000898 2186-Nov-16 06:00 38.20409560336 -0.0000832 2186-Nov-16 09:00 38.20409559760 -0.0000766 2186-Nov-16 12:00 38.20409559231 -0.0000699 2186-Nov-16 15:00 38.20409558750 -0.0000633 2186-Nov-16 18:00 38.20409558317 -0.0000566 2186-Nov-16 21:00 38.20409557932 -0.0000500 2186-Nov-17 00:00 38.20409557595 -0.0000434 2186-Nov-17 03:00 38.20409557306 -0.0000367 2186-Nov-17 06:00 38.20409557065 -0.0000301 2186-Nov-17 09:00 38.20409556871 -0.0000235 2186-Nov-17 12:00 38.20409556726 -0.0000168 2186-Nov-17 15:00 38.20409556629 -0.0000102 2186-Nov-17 18:00 38.20409556579 -0.0000035 2186-Nov-17 21:00 38.20409556578 0.0000031 2186-Nov-18 00:00 38.20409556624 0.0000098 2186-Nov-18 03:00 38.20409556718 0.0000164 2186-Nov-18 06:00 38.20409556861 0.0000230 2186-Nov-18 09:00 38.20409557051 0.0000297 2186-Nov-18 12:00 38.20409557289 0.0000363 2186-Nov-18 15:00 38.20409557576 0.0000430 2186-Nov-18 18:00 38.20409557910 0.0000496 2186-Nov-18 21:00 38.20409558292 0.0000563 2186-Nov-19 00:00 38.20409558722 0.0000629 2186-Nov-19 03:00 38.20409559200 0.0000696 2186-Nov-19 06:00 38.20409559726 0.0000762 2186-Nov-19 09:00 38.20409560301 0.0000829 2186-Nov-19 12:00 38.20409560923 0.0000895 2186-Nov-19 15:00 38.20409561593 0.0000962 2186-Nov-19 18:00 38.20409562311 0.0001028 2186-Nov-19 21:00 38.20409563077 0.0001095 2186-Nov-20 00:00 38.20409563892 0.0001161 2186-Nov-20 03:00 38.20409564754 0.0001228 2186-Nov-20 06:00 38.20409565664 0.0001294 2186-Nov-20 09:00 38.20409566623 0.0001361 2186-Nov-20 12:00 38.20409567629 0.0001427 2186-Nov-20 15:00 38.20409568683 0.0001494 2186-Nov-20 18:00 38.20409569786 0.0001561 2186-Nov-20 21:00 38.20409570937 0.0001627 2186-Nov-21 00:00 38.20409572135 0.0001694 2186-Nov-21 03:00 38.20409573382 0.0001760 2186-Nov-21 06:00 38.20409574677 0.0001827 2186-Nov-21 09:00 38.20409576019 0.0001893 2186-Nov-21 12:00 38.20409577410 0.0001960 2186-Nov-21 15:00 38.20409578849 0.0002027 2186-Nov-21 18:00 38.20409580336 0.0002093 2186-Nov-21 21:00 38.20409581871 0.0002160 2186-Nov-22 00:00 38.20409583455 0.0002227 2186-Nov-22 03:00 38.20409585086 0.0002293 2186-Nov-22 06:00 38.20409586766 0.0002360 2186-Nov-22 09:00 38.20409588493 0.0002426 2186-Nov-22 12:00 38.20409590269 0.0002493 2186-Nov-22 15:00 38.20409592093 0.0002560 2186-Nov-22 18:00 38.20409593965 0.0002626 2186-Nov-22 21:00 38.20409595885 0.0002693 2186-Nov-23 00:00 38.20409597853 0.0002760 2186-Nov-23 03:00 38.20409599869 0.0002826 2186-Nov-23 06:00 38.20409601934 0.0002893 2186-Nov-23 09:00 38.20409604046 0.0002960 2186-Nov-23 12:00 38.20409606207 0.0003027 2186-Nov-23 15:00 38.20409608416 0.0003093 2186-Nov-23 18:00 38.20409610673 0.0003160 2186-Nov-23 21:00 38.20409612979 0.0003227 2186-Nov-24 00:00 38.20409615332 0.0003294 2186-Nov-24 03:00 38.20409617734 0.0003360 2186-Nov-24 06:00 38.20409620183 0.0003427 2186-Nov-24 09:00 38.20409622681 0.0003494 2186-Nov-24 12:00 38.20409625228 0.0003561 2186-Nov-24 15:00 38.20409627822 0.0003627 2186-Nov-24 18:00 38.20409630465 0.0003694 2186-Nov-24 21:00 38.20409633156 0.0003761 2186-Nov-25 00:00 38.20409635895 0.0003828 2186-Nov-25 03:00 38.20409638682 0.0003894 2186-Nov-25 06:00 38.20409641517 0.0003961 2186-Nov-25 09:00 38.20409644401 0.0004028 2186-Nov-25 12:00 38.20409647333 0.0004095 2186-Nov-25 15:00 38.20409650313 0.0004162 2186-Nov-25 18:00 38.20409653341 0.0004229 2186-Nov-25 21:00 38.20409656418 0.0004295 2186-Nov-26 00:00 38.20409659543 0.0004362 2186-Nov-26 03:00 38.20409662716 0.0004429 2186-Nov-26 06:00 38.20409665938 0.0004496 2186-Nov-26 09:00 38.20409669207 0.0004563 2186-Nov-26 12:00 38.20409672525 0.0004630 2186-Nov-26 15:00 38.20409675891 0.0004697 2186-Nov-26 18:00 38.20409679306 0.0004763 2186-Nov-26 21:00 38.20409682769 0.0004830 2186-Nov-27 00:00 38.20409686280 0.0004897 2186-Nov-27 03:00 38.20409689839 0.0004964 2186-Nov-27 06:00 38.20409693447 0.0005031 2186-Nov-27 09:00 38.20409697103 0.0005098 2186-Nov-27 12:00 38.20409700807 0.0005165 2186-Nov-27 15:00 38.20409704560 0.0005232 2186-Nov-27 18:00 38.20409708361 0.0005299 2186-Nov-27 21:00 38.20409712210 0.0005366 2186-Nov-28 00:00 38.20409716108 0.0005433 2186-Nov-28 03:00 38.20409720053 0.0005500 2186-Nov-28 06:00 38.20409724048 0.0005567 2186-Nov-28 09:00 38.20409728090 0.0005634 2186-Nov-28 12:00 38.20409732181 0.0005701 2186-Nov-28 15:00 38.20409736321 0.0005767 2186-Nov-28 18:00 38.20409740508 0.0005834 2186-Nov-28 21:00 38.20409744744 0.0005901 2186-Nov-29 00:00 38.20409749029 0.0005968 2186-Nov-29 03:00 38.20409753361 0.0006036 2186-Nov-29 06:00 38.20409757743 0.0006103 2186-Nov-29 09:00 38.20409762172 0.0006170 2186-Nov-29 12:00 38.20409766650 0.0006237 2186-Nov-29 15:00 38.20409771176 0.0006304 2186-Nov-29 18:00 38.20409775751 0.0006371 2186-Nov-29 21:00 38.20409780374 0.0006438 2186-Nov-30 00:00 38.20409785046 0.0006505 $$EOE ******************************************************************************* Column meaning: TIME Times PRIOR to 1962 are UT1, a mean-solar time closely related to the prior but now-deprecated GMT. Times AFTER 1962 are in UTC, the current civil or "wall-clock" time-scale. UTC is kept within 0.9 seconds of UT1 using integer leap-seconds for 1972 and later years. Conversion from the internal Barycentric Dynamical Time (TDB) of solar system dynamics to the non-uniform civil UT time-scale requested for output has not been determined for UTC times after the next July or January 1st. Therefore, the last known leap-second is used as a constant over future intervals. Time tags refer to the UT time-scale conversion from TDB on Earth regardless of observer location within the solar system, although clock rates may differ due to the local gravity field and no analog to "UT" may be defined for that location. Any 'b' symbol in the 1st-column denotes a B.C. date. First-column blank (" ") denotes an A.D. date. CALENDAR SYSTEM Mixed calendar mode was active such that calendar dates after AD 1582-Oct-15 (if any) are in the modern Gregorian system. Dates prior to 1582-Oct-5 (if any) are in the Julian calendar system, which is automatically extended for dates prior to its adoption on 45-Jan-1 BC. The Julian calendar is useful for matching historical dates. The Gregorian calendar more accurately corresponds to the Earth's orbital motion and seasons. A "Gregorian-only" calendar mode is available if such physical events are the primary interest. NOTE: "n.a." in output means quantity "not available" at the print-time. 'r rdot' = The Sun's apparent range ("r", light-time aberrated) and range-rate ("rdot") relative to the target center, as seen by the observer. A positive "rdot" means the target center was moving away from the Sun, negative means moving toward the Sun. Units: AU and KM/S Computations by ... Solar System Dynamics Group, Horizons On-Line Ephemeris System 4800 Oak Grove Drive, Jet Propulsion Laboratory Pasadena, CA 91109 USA General site: https://ssd.jpl.nasa.gov/ Mailing list: https://ssd.jpl.nasa.gov/email_list.html System news : https://ssd.jpl.nasa.gov/horizons/news.html User Guide : https://ssd.jpl.nasa.gov/horizons/manual.html Connect : browser https://ssd.jpl.nasa.gov/horizons/app.html#/x API https://ssd-api.jpl.nasa.gov/doc/horizons.html command-line telnet ssd.jpl.nasa.gov 6775 e-mail/batch https://ssd.jpl.nasa.gov/ftp/ssd/horizons_batch.txt scripts https://ssd.jpl.nasa.gov/ftp/ssd/SCRIPTS Author : Jon.D.Giorgini@jpl.nasa.gov ******************************************************************************* !$$SOF COMMAND = 'Makemake' QUANTITIES = '19' START_TIME = '2186-11-01' STEP_SIZE = '3 hours' STOP_TIME = '2186-11-30'